If you wish to contribute or participate in the discussions about articles you are invited to join SKYbrary as a registered user

 Actions

Hemaven Tärnaby Airport

From SKYbrary Wiki

ESUT
Airport
ICAO: ESUT – IATA: HMV
Summary
Name Hemaven Tärnaby Airport
Region Europe
Territory Sweden SE.gif
Location Hemaven, Storuman
Serving Hemaven
Elevation 458.114 m <br />1,503 ft <br />1,503 ft458.114 m <br />
Coordinates 65° 48' 22.00" N, 15° 4' 58.00" E
Runways
Designator Length Width Surface ROPS
15/33 1601 m5,252.625 ft <br /> 30 m98.425 ft <br /> ASP /


METAR
Observation ESUT 200020Z AUTO 12018KT 3700 -SN ///024/// M00/M03 Q0991
Station HEMAVAN
Date/Time 20 October 2021 00:20:00
Wind direction 120°
Wind speed 18 kts
Lowest cloud amount n/a
Temperature 24°C
Dew point 0°C
Humidity 20%
QNH 991 hPa
Weather condition n/a

Airport in Hemavan, Sweden.

Climatology

Subpolar climate (Köppen climate classification Dfc

Maps

Terrain

Loading map...

Airport Layout

Loading map...


Accidents & Serious Incidents at or in vicinity of ESUT

None on SKYbrary